Wind_Speed
56 56 56 57 57 57 58 59 59 58 57 56 57 58 59 60 60 61 62 62 63 64 64 64 64 65 65 66 66 66 65 64 64 63 62 62 61 59
54 55 56 56 56 56 56 57 58 58 57 56 56 57 58 58 59 60 60 61 62 63 63 64 65 66 66 66 67 69 68 67 66 66 66 66 64 62
54 54 54 55 56 56 56 55 55 56 56 55 56 56 57 58 59 59 60 60 61 62 63 64 65 65 66 66 67 69 70 70 69 69 69 68 67 66
52 52 52 53 53 54 54 54 54 54 55 55 55 56 57 57 58 58 59 60 59 60 61 62 63 64 65 66 67 68 69 70 71 71 71 71 69 68
51 50 51 51 51 51 52 53 53 54 54 54 54 54 55 56 57 57 58 59 59 59 60 61 63 65 65 65 67 68 69 69 70 71 72 73 73 72
50 50 50 50 50 50 51 51 52 53 53 53 53 53 53 54 55 56 56 57 57 58 59 61 62 64 65 65 66 68 69 70 70 71 72 73 74 74
49 49 49 49 50 50 50 50 51 51 51 51 51 51 52 53 53 54 55 55 57 58 59 60 62 63 64 65 66 67 68 69 70 72 73 73 74 75
48 48 48 49 49 50 50 49 49 49 48 48 49 49 50 51 52 53 53 54 55 57 58 59 60 61 62 63 64 65 66 67 69 70 72 74 75 75
47 47 47 47 48 48 48 48 48 48 48 47 47 47 48 50 51 52 53 53 53 54 55 56 57 58 59 60 62 63 64 65 67 68 69 70 73 75
45 45 45 45 45 45 45 46 46 47 46 46 46 46 47 48 49 50 51 51 51 52 53 53 54 55 56 57 58 60 61 62 63 65 67 68 70 72
44 43 43 43 43 43 43 44 44 45 45 45 46 46 46 47 48 48 48 49 48 49 50 51 51 52 53 54 55 57 58 60 61 62 63 65 67 69
41 41 41 41 41 41 41 41 42 43 43 44 45 45 45 46 46 47 47 47 47 46 47 49 49 50 51 52 53 54 55 57 58 59 60 62 63 65
38 38 38 39 39 39 40 39 39 40 40 42 43 43 44 45 44 45 45 45 45 45 46 47 48 49 49 49 50 52 53 54 54 55 57 58 60 61
36 36 36 37 37 37 38 38 38 39 39 39 40 41 42 43 43 44 44 44 44 44 45 46 46 47 48 47 47 49 50 50 50 52 54 55 56 57
33 33 34 35 36 36 37 38 38 38 38 38 38 39 40 41 41 42 43 43 43 43 43 43 44 45 45 45 44 45 46 47 48 49 51 52 54 54
31 32 33 33 35 36 36 37 37 37 37 37 37 38 39 40 40 40 40 40 40 40 40 41 41 42 43 43 43 43 44 45 45 47 48 48 49 51
31 31 32 32 33 34 35 35 36 36 36 36 37 37 37 37 38 38 38 38 38 38 38 39 39 40 40 41 42 42 42 43 43 44 44 45 45 47
31 31 32 32 32 32 33 34 35 35 35 36 36 36 36 36 37 37 37 37 37 37 38 38 38 38 39 40 41 41 42 43 43 43 43 43 43 45
31 31 31 31 31 31 32 33 33 34 34 34 34 35 35 35 36 36 36 35 35 35 36 36 37 38 38 38 39 41 41 41 42 42 42 42 42 42
31 31 30 30 30 30 31 31 32 32 32 32 33 33 33 34 34 34 33 33 33 34 34 35 36 36 37 37 37 39 39 40 40 41 41 41 40 41
30 30 30 30 29 30 30 31 31 31 31 32 32 32 32 32 32 31 31 31 32 33 33 34 35 36 36 36 35 36 37 38 38 39 39 39 38 39
29 29 29 29 29 29 29 29 29 30 31 31 31 31 30 30 29 29 30 30 30 31 32 32 33 33 33 33 32 33 34 35 35 36 36 36 36 36
27 27 27 27 28 28 27 28 28 29 29 29 29 29 28 28 28 28 28 29 29 30 30 30 31 31 31 31 31 31 32 32 32 33 34 35 35 35
Wind_Direction
271 270 269 269 269 268 267 267 266 263 261 261 260 259 259 259 258 257 257 256 254 253 252 252 252 251 251 250 249 248 248 248 248 248 248 248 249 249
272 272 270 269 269 268 267 267 266 265 263 261 260 259 260 259 258 257 256 255 254 254 253 252 252 252 251 249 249 248 248 248 248 248 248 249 249 249
273 272 271 270 269 269 268 267 266 265 263 262 261 261 260 259 258 257 256 255 254 254 254 253 252 252 251 250 249 248 247 247 248 247 248 248 249 249
273 272 272 271 271 270 268 267 266 265 264 263 262 262 261 259 258 257 257 256 255 255 255 254 252 252 251 250 250 248 247 248 248 247 247 248 248 248
273 273 273 272 271 269 269 268 267 267 266 265 264 263 262 260 258 257 257 257 257 256 256 255 253 253 252 252 251 250 249 248 248 248 247 247 247 248
274 275 274 273 271 270 269 269 268 268 267 266 265 263 262 261 259 258 258 258 258 258 257 256 255 255 255 254 254 252 252 251 250 250 249 248 248 248
275 275 274 273 272 272 271 270 269 268 268 267 266 264 263 262 260 260 260 260 260 260 259 258 257 257 257 256 255 254 253 253 252 251 250 249 250 249
275 275 275 275 273 273 272 270 270 270 268 267 266 264 264 262 261 262 261 261 261 261 260 259 258 257 257 256 255 254 253 254 253 253 252 251 251 250
275 274 274 274 274 272 272 271 270 269 268 267 266 265 264 263 263 263 263 262 262 262 261 259 258 258 257 257 256 255 254 254 254 253 253 252 252 251
276 275 275 274 274 272 272 271 270 269 268 268 267 267 266 265 265 265 265 264 263 263 263 262 259 258 257 256 255 254 254 255 255 254 254 253 253 252
277 276 274 274 273 272 272 272 271 269 269 269 268 267 267 267 267 266 266 265 264 264 263 263 260 258 257 256 255 254 255 256 255 254 254 254 254 253
277 276 275 274 273 273 273 272 271 270 269 269 269 267 266 267 267 267 267 266 265 264 263 263 261 259 257 257 256 255 255 256 256 255 254 254 255 255
277 276 274 273 273 274 274 273 273 272 270 270 269 267 267 267 268 268 267 267 266 265 264 264 262 262 260 258 257 256 256 256 256 255 255 255 256 256
277 276 274 273 273 274 274 274 275 275 273 271 270 268 268 268 268 268 268 268 268 267 266 265 264 263 262 260 258 257 257 257 256 257 257 256 256 256
278 276 274 273 273 274 275 275 276 275 275 274 273 271 270 270 269 268 268 267 268 267 266 266 265 264 263 261 259 258 257 257 258 260 259 257 256 255
280 278 275 275 275 275 276 276 276 276 276 276 275 273 271 270 269 269 268 267 267 266 266 266 265 263 262 261 260 259 259 259 260 261 261 259 258 257
280 280 278 277 277 277 277 277 278 277 276 276 275 274 272 271 270 269 268 268 268 267 266 266 266 264 263 262 261 261 261 260 260 261 262 261 260 258
282 281 281 279 278 278 277 277 278 279 278 277 276 274 273 273 271 269 268 268 268 267 266 267 267 265 264 264 264 263 263 262 261 262 262 262 261 260
282 283 282 280 279 279 278 278 278 279 279 278 277 276 275 274 272 270 269 268 267 267 267 267 268 267 266 265 265 265 265 263 262 262 262 262 262 261
284 284 283 283 281 280 279 279 279 279 279 279 278 277 276 275 273 270 269 269 268 267 267 268 269 269 268 267 267 267 266 264 263 262 262 262 263 262
286 285 284 284 283 282 280 280 280 279 279 280 279 278 277 275 272 271 270 270 270 269 269 269 271 271 270 269 268 267 267 267 266 264 263 263 263 262
288 287 286 285 284 284 283 281 280 280 280 281 280 279 277 274 273 271 271 271 272 272 271 271 271 270 270 269 269 269 268 267 266 264 264 264 264 264
290 289 287 286 285 284 283 282 281 282 282 282 280 279 276 274 273 273 273 274 274 273 272 272 271 270 269 268 269 270 270 268 266 263 263 264 266 265
Height
5568 5567 5567 5567 5566 5566 5567 5568 5570 5572 5576 5578 5578 5579 5580 5583 5586 5590 5594 5597 5601 5605 5609 5614 5618 5622 5626 5631 5635 5641 5646 5651 5656 5661 5666 5671 5676 5680
5552 5551 5551 5550 5550 5550 5550 5550 5551 5553 5557 5561 5561 5562 5564 5566 5569 5572 5575 5579 5583 5586 5590 5595 5599 5603 5607 5611 5616 5622 5627 5632 5638 5643 5649 5654 5659 5663
5536 5535 5535 5534 5534 5533 5533 5534 5535 5536 5538 5542 5543 5545 5546 5549 5551 5554 5557 5560 5564 5568 5572 5576 5580 5584 5588 5592 5596 5601 5607 5613 5619 5625 5630 5636 5641 5647
5521 5520 5519 5518 5518 5518 5517 5518 5519 5519 5521 5524 5526 5527 5529 5530 5533 5536 5539 5542 5546 5550 5553 5556 5560 5564 5568 5572 5577 5582 5587 5593 5599 5605 5611 5618 5624 5627
5507 5506 5504 5503 5503 5503 5502 5503 5503 5503 5505 5507 5509 5510 5511 5513 5515 5518 5521 5525 5528 5531 5534 5538 5541 5545 5549 5553 5558 5563 5568 5574 5580 5585 5589 5595 5601 5607
5492 5491 5490 5489 5489 5488 5488 5488 5488 5488 5489 5490 5491 5493 5495 5496 5498 5501 5504 5507 5510 5513 5516 5519 5522 5526 5530 5535 5540 5544 5548 5552 5557 5563 5568 5574 5580 5586
5478 5476 5475 5475 5474 5474 5473 5473 5473 5473 5473 5474 5475 5477 5478 5480 5482 5484 5487 5490 5493 5495 5498 5501 5505 5509 5511 5514 5518 5522 5527 5531 5536 5542 5547 5552 5558 5564
5464 5463 5462 5461 5460 5459 5459 5459 5459 5458 5459 5459 5460 5461 5463 5464 5467 5468 5470 5474 5477 5480 5480 5483 5485 5489 5492 5495 5498 5502 5507 5511 5515 5519 5524 5530 5535 5541
5451 5450 5449 5447 5446 5446 5446 5445 5445 5444 5445 5446 5446 5447 5449 5451 5452 5454 5454 5456 5459 5461 5462 5466 5468 5471 5474 5476 5480 5483 5486 5490 5494 5498 5502 5507 5512 5518
5437 5436 5435 5434 5433 5433 5433 5432 5432 5431 5432 5432 5433 5434 5435 5435 5436 5438 5439 5441 5443 5444 5445 5448 5451 5453 5456 5458 5461 5464 5467 5470 5474 5477 5481 5485 5490 5495
5424 5423 5422 5421 5421 5420 5420 5420 5419 5419 5419 5419 5420 5420 5421 5421 5422 5423 5424 5425 5428 5430 5429 5430 5433 5435 5439 5441 5444 5446 5449 5452 5455 5458 5462 5465 5469 5473
5412 5411 5410 5409 5408 5407 5407 5407 5407 5407 5407 5406 5406 5407 5408 5408 5408 5409 5409 5410 5412 5415 5415 5415 5417 5419 5422 5426 5427 5429 5431 5434 5437 5440 5443 5446 5449 5452
5399 5399 5398 5397 5396 5395 5395 5395 5395 5395 5394 5394 5394 5394 5395 5395 5395 5395 5395 5396 5397 5400 5400 5401 5402 5403 5405 5409 5412 5413 5415 5417 5420 5423 5425 5428 5431 5433
5388 5387 5386 5385 5385 5384 5384 5383 5383 5382 5382 5382 5381 5381 5382 5382 5382 5382 5382 5383 5383 5385 5386 5386 5387 5389 5390 5393 5397 5399 5400 5402 5404 5406 5409 5411 5414 5416
5377 5376 5375 5374 5374 5374 5373 5372 5371 5371 5370 5370 5369 5369 5369 5369 5369 5369 5369 5370 5371 5371 5372 5372 5373 5375 5376 5378 5381 5383 5385 5388 5389 5391 5393 5395 5397 5399
5367 5366 5364 5364 5363 5362 5362 5361 5360 5360 5359 5358 5358 5357 5357 5357 5357 5357 5357 5357 5358 5359 5359 5360 5361 5362 5363 5365 5367 5369 5371 5373 5375 5377 5378 5380 5381 5383
5357 5356 5355 5354 5353 5352 5351 5350 5350 5349 5348 5347 5346 5346 5346 5345 5345 5345 5345 5345 5346 5347 5348 5348 5349 5349 5351 5352 5354 5356 5357 5359 5361 5362 5364 5366 5367 5368
5347 5346 5345 5344 5343 5342 5341 5340 5340 5338 5337 5336 5336 5335 5334 5334 5334 5334 5334 5334 5335 5335 5336 5337 5337 5338 5340 5341 5342 5343 5344 5346 5347 5348 5349 5352 5354 5355
5338 5337 5335 5334 5333 5332 5331 5330 5329 5328 5327 5326 5325 5324 5323 5323 5323 5323 5323 5323 5323 5324 5325 5325 5325 5326 5328 5330 5331 5330 5331 5332 5334 5335 5336 5338 5340 5342
5328 5327 5326 5325 5323 5322 5321 5320 5319 5318 5317 5316 5315 5314 5313 5312 5312 5312 5312 5312 5313 5313 5314 5314 5314 5315 5316 5317 5318 5318 5317 5318 5320 5322 5323 5325 5327 5328
5319 5318 5316 5315 5314 5312 5311 5310 5309 5308 5307 5306 5305 5304 5303 5303 5302 5302 5302 5302 5302 5303 5303 5304 5304 5303 5303 5304 5306 5307 5307 5306 5307 5308 5310 5312 5314 5316
5310 5309 5307 5306 5305 5303 5302 5301 5300 5299 5298 5296 5295 5294 5294 5293 5293 5293 5293 5293 5293 5292 5292 5293 5292 5292 5293 5294 5295 5296 5297 5297 5297 5297 5298 5300 5301 5303
5301 5300 5298 5297 5296 5295 5293 5292 5291 5290 5289 5287 5286 5285 5285 5284 5284 5284 5283 5283 5283 5282 5282 5282 5282 5282 5283 5283 5284 5285 5286 5286 5287 5288 5289 5289 5290 5292